Weather History for KPIL - November, 2011

Change the Weather History Date:

Wednesday, November 9, 2011

  Actual Average Record
Temperature  
Mean Temperature 67 °F -  
Max Temperature 75 °F - - ()
Min Temperature 57 °F - - ()
Cooling Degree Days 2    
Growing Degree Days 17 (Base 50)    
Moisture  
Dew Point 54 °F    
Average Humidity 60    
Maximum Humidity 94    
Minimum Humidity 40    
Precipitation  
Precipitation 0.04 in - - ()
Sea Level Pressure  
Sea Level Pressure 30.15 in    
Wind  
Wind Speed 13 mph (North)    
Max Wind Speed 24 mph    
Max Gust Speed 32 mph    
Visibility 10 miles    
Events Rain    
T = Trace of Precipitation, MM = Missing Value Source: NWS Daily Summary

Daily Weather History Graph

Daily Weather History Graph

Search for Another Location

Airport or City:

Trip Planner

Search our weather history database for the weather conditions in past years. The results will help you decide how hot, cold, wet, or windy it might be!

Date:

Astronomy

Nov. 09, 2011 Rise Set
Actual Time 6:43 AM CST 5:42 PM CST
Civil Twilight 6:19 AM CST 6:06 PM CST
Nautical Twilight 5:51 AM CST 6:34 PM CST
Astronomical Twilight 5:24 AM CST 7:01 PM CST
Moon 4:56 PM CST (11/9) 5:40 AM CST (11/9)
Length of Visible Light 11h 47m
Length of Day
10h 59m
Waxing Gibbous, 99% of the Moon is Illuminated
Nov 9
Waxing Gibbous
Nov 10
Full
Nov 18
Last Quarter
Nov 25
New
Dec 2
First Quarter

Hourly Weather History & Observations

Time (CST) Temp. Dew Point Humidity Pressure Visibility Wind Dir Wind Speed Gust Speed Precip Events Conditions
12:53 AM 73.9 °F 70.0 °F 87% 30.01 in 10.0 mi NNW 5.8 mph - N/A   Mostly Cloudy
1:40 AM 73.4 °F 71.6 °F 94% 30.02 in 9.0 mi North 6.9 mph - N/A   Mostly Cloudy
1:53 AM 73.0 °F 71.1 °F 93% 30.02 in 9.0 mi North 6.9 mph - N/A   Overcast
2:20 AM 73.4 °F 71.6 °F 94% 30.01 in 9.0 mi NNE 5.8 mph - N/A   Mostly Cloudy
2:53 AM 73.9 °F 71.1 °F 91% 30.01 in 9.0 mi North 4.6 mph - N/A   Partly Cloudy
3:53 AM 73.9 °F 71.1 °F 91% 30.01 in 7.0 mi North 12.7 mph - 0.00 in Rain Light Rain
4:48 AM 75.2 °F 57.2 °F 53% 30.03 in 10.0 mi NNE 24.2 mph 29.9 mph 0.01 in   Overcast
4:53 AM 75.0 °F 55.9 °F 51% 30.03 in 10.0 mi NNE 21.9 mph 32.2 mph 0.01 in   Mostly Cloudy
5:53 AM 73.9 °F 52.0 °F 46% 30.06 in 10.0 mi NNE 20.7 mph 31.1 mph N/A   Overcast
6:53 AM 73.9 °F 51.1 °F 45% 30.10 in 10.0 mi NNE 19.6 mph 28.8 mph N/A   Overcast
7:53 AM 73.9 °F 50.0 °F 43% 30.14 in 10.0 mi NNE 16.1 mph 25.3 mph N/A   Overcast
8:53 AM 72.0 °F 52.0 °F 49% 30.17 in 10.0 mi North 16.1 mph 24.2 mph N/A   Overcast
9:53 AM 71.1 °F 55.0 °F 57% 30.19 in 10.0 mi North 21.9 mph 28.8 mph N/A   Mostly Cloudy
10:53 AM 70.0 °F 55.9 °F 61% 30.22 in 10.0 mi North 23.0 mph 28.8 mph 0.00 in   Overcast
11:53 AM 68.0 °F 54.0 °F 61% 30.23 in 10.0 mi North 20.7 mph 26.5 mph N/A   Overcast
12:53 PM 66.0 °F 50.0 °F 56% 30.22 in 10.0 mi NNW 17.3 mph - 0.00 in Rain Light Rain
1:53 PM 66.9 °F 48.0 °F 51% 30.19 in 10.0 mi NNW 12.7 mph - 0.00 in Rain Light Rain
2:53 PM 69.1 °F 45.0 °F 42% 30.18 in 10.0 mi North 12.7 mph - 0.00 in   Overcast
3:53 PM 66.9 °F 44.1 °F 44% 30.18 in 10.0 mi NNW 19.6 mph - N/A   Overcast
4:53 PM 66.0 °F 41.0 °F 40% 30.19 in 10.0 mi NNW 16.1 mph - N/A   Overcast
5:53 PM 66.0 °F 42.1 °F 42% 30.21 in 10.0 mi NNW 13.8 mph - N/A   Overcast
6:53 PM 64.9 °F 39.9 °F 40% 30.24 in 10.0 mi NNW 18.4 mph 25.3 mph N/A   Overcast
7:53 PM 64.0 °F 39.9 °F 41% 30.25 in 10.0 mi NNW 18.4 mph - N/A   Overcast
8:53 PM 63.0 °F 41.0 °F 45% 30.28 in 10.0 mi NNW 19.6 mph 27.6 mph N/A   Overcast
9:53 PM 59.0 °F 48.9 °F 69% 30.31 in 10.0 mi NNW 11.5 mph - 0.00 in Rain Light Rain
10:53 PM 59.0 °F 48.0 °F 67% 30.32 in 10.0 mi NNW 10.4 mph - 0.02 in Rain Light Rain
11:53 PM 57.9 °F 48.0 °F 70% 30.32 in 10.0 mi NNW 17.3 mph - 0.01 in   Overcast